Tracking 17784 objects as of 23-July-2016
HD Live streaming from Space Station
objects crossing your sky now

AMC-10 (GE-10)

Track AMC-10 (GE-10) now!
AMC-10 (GE-10) is classified as:


NORAD ID: 28154
Int'l Code: 2004-003A
Perigee: 35,857.4 km
Apogee: 35,882.8 km
Inclination: 0.0 °
Period: 1,440.0 minutes
Semi major axis: 42241 km
RCS: 21.2115 m2 (large)
Launch date: February 5, 2004
Source: SOCIETE EUROPEENNE DES SATELLITES (SES)
Launch site: AIR FORCE EASTERN TEST RANGE (AFETR)

24 C-band transponders.
Your satellite tracking list
Your tracking list is empty





NASA's NSSDC Master Catalog

Two Line Element Set (TLE):
1 28154U 04003A   16205.23912862  .00000078  00000-0  00000+0 0  9998
2 28154   0.0471 272.3758 0003006 195.4852 144.6166  1.00272299 45673
Source of the keplerian elements: AFSPC

N2YO: 862